Other Public Products
Issued by NWS Grand Forks, ND

Home | Current Version | Previous Version | Graphics & Text | Print | Product List | Glossary On
Versions: 1 2 3 4 5 6 7 8 9 10 11 12 13 14 15 16 17 18 19 20 21 22 23 24 25 26 27 28 29 30 31 32 33 34 35 36 37 38 39 40 41 42 43 44 45 46 47 48 49 50
000
FPUS83 KFGF 011910
OPUFGF
PRAIRIE TO PINES WEATHER ROUNDUP
NATIONAL WEATHER SERVICE EASTERN NORTH DAKOTA/GRAND FORKS ND
200 PM CDT WED JUL 01 2015

 **SATELLITE DATA USED TO AUGMENT SKY COVER AT AUTOMATED STATIONS**
 *****  WEATHER ACROSS EASTERN NORTH DAKOTA  *****

CITY           SKY/WX    TMP DP  RH WIND       PRES   REMARKS
GRAND FORKS    MOSUNNY   77  58  51 CALM      29.93F
GRAND FORKS AF MOSUNNY   77  60  56 VRB6      29.95S
GRAND CITY NWS   N/A     81 N/A N/A W7          N/A
BUXTON         NOT AVBL
DEVILS LAKE    SUNNY     73  57  56 SE7       29.94F
FARGO          PTSUNNY   75  61  61 S8        29.96S
WAHPETON ARPT  PTCLDY    72  55  56 S12       29.98S
$$

 *****  WEATHER ACROSS CENTRAL AND WESTERN NORTH DAKOTA  *****

CITY           SKY/WX    TMP DP  RH WIND       PRES   REMARKS
JAMESTOWN      PTSUNNY   73  60  63 S7        29.96R
BISMARCK       MOSUNNY   76  61  59 CALM      29.96S
MINOT          CLOUDY    70  61  73 CALM      29.96S
MINOT AFB      PTSUNNY   68  68 100 CALM      29.96S
GARRISON         N/A     74  64  71 VRB5      29.97S
WILLISTON      PTSUNNY   75  58  55 N9        29.99S
DICKINSON      CLOUDY    69  60  73 CALM      30.00S
HETTINGER      CLOUDY    71  62  73 NE5       30.01F
$$

 *****  OTHER OBSERVATIONS NORTHEAST NORTH DAKOTA  *****

CITY           SKY/WX    TMP DP  RH WIND       PRES   REMARKS
WALHALLA       FAIR      75  59  57 MISG      29.94F
LANGDON        FAIR      77  59  53 VRB6      29.97S
CAVALIER       FAIR      77  54  44 S7        29.94S
GRAFTON        FAIR      77  57  50 CALM      29.95S
CANDO          FAIR      73  57  56 S7        29.97R
FORT TOTTEN      N/A     76  57  50 S7        29.95
ROLLA            N/A     72  63  73 SW10      29.98S
RUGBY          NOT AVBL
 ***** THE ABOVE OBSERVATIONS ARE NON NWS ARE NOT QUALITY
        CONTROLLED AND MAY MIS-REPORT RAIN FOR SNOW...
$$

 *****  OTHER OBSERVATIONS SOUTHEAST NORTH DAKOTA *****

CITY           SKY/WX    TMP DP  RH WIND       PRES   REMARKS
COOPERSTOWN    NOT AVBL
VALLEY CITY    MOCLDY    73  63  68 SE9       29.96S
OAKES            N/A     70  66  88 SE10      29.96R
GWINNER        NOT AVBL
SHEYENNE NWR     N/A     74  64  69 SE8       29.95S
BUFFALO        NOT AVBL
WYNDMERE       NOT AVBL
 ***** THE ABOVE OBSERVATIONS ARE NON NWS ARE NOT QUALITY
       CONTROLLED AND MAY MIS-REPORT RAIN FOR SNOW...
$$

  *****  WEATHER ACROSS NORTHERN MINNESOTA  *****

CITY           SKY/WX    TMP DP  RH WIND       PRES   REMARKS
FLAG ISLAND    SUNNY     72  61  68 S8        29.94F
WARROAD        SUNNY     75  61  60 E7        29.96S
ROSEAU         MOSUNNY   77  57  50 W3        29.95F
HALLOCK        NOT AVBL
THF RVR FALLS  MOSUNNY   75  57  53 S7        29.96S
HALSTAD        NOT AVBL
FOSSTON        SUNNY     77  61  57 CALM      29.97S
BAUDETTE       SUNNY     77  48  35 VRB3      29.96S
WASKISH        SUNNY     75  63  64 W7        29.97S
CROOKSTON      MOSUNNY   75  57  53 CALM      29.95F
$$
  *****  WEATHER ACROSS CENTRAL AND WEST MINNESOTA  *****

CITY           SKY/WX    TMP DP  RH WIND       PRES   REMARKS
BEMIDJI        PTSUNNY   75  59  58 N7        29.96F
PARK RAPIDS    MOSUNNY   75  57  53 S9        29.98F
WADENA         SUNNY     72  55  56 S8        29.99F
DETROIT LAKES  SUNNY     73  59  60 S8        29.99F
MOORHEAD       SUNNY     73  61  64 S9        29.97S
FERGUS FALLS   SUNNY     72  57  60 S8G16     29.98S
ELBOW LAKE     FAIR      71  56  61 SE8       29.99S
MORRIS MN      SUNNY     73  57  56 SE9       29.98S
STAPLES        SUNNY     73  52  46 S9        30.00F
WHEATON        SUNNY     68  57  68 SE9       30.00R
$$
  *****  WEATHER ELSEWHERE ACROSS MINNESOTA  *****

CITY           SKY/WX    TMP DP  RH WIND       PRES   REMARKS
DULUTH         PTSUNNY   69  53  56 S8        30.01F
INTRNTL FALLS  SUNNY     74  51  44 VRB5      29.97S
ELY            MOSUNNY   72  50  46 W5        30.00S
CLOQUET        MOSUNNY   70  54  56 SE6       30.01S
BRAINERD       MOSUNNY   74  51  44 S7        30.00F
HIBBING        MOSUNNY   73  53  49 CALM      29.99F
ALEXANDRIA     SUNNY     70  50  49 SE9       30.02S
SAINT CLOUD    MOSUNNY   70  46  42 SE8       30.01F
MINNEAPOLIS    PTSUNNY   66  47  50 VRB6      30.02S
$$

  *****  WEATHER ACROSS SOUTH DAKOTA  *****

CITY           SKY/WX    TMP DP  RH WIND       PRES   REMARKS
SIOUX FALLS    CLOUDY    70  62  76 E10       29.95S
BROOKINGS      CLOUDY    72  61  68 E14       29.97S
WATERTOWN      PTSUNNY   68  58  70 SE9       29.97S
HURON          PTSUNNY   76  65  68 SE9       29.91R
SISSETON         N/A     71  62  73 S12       29.96S
ABERDEEN       PTSUNNY   74  65  73 SE7       29.94R
MITCHELL       CLOUDY    77  66  68 SE9       29.92S
PIERRE         CLOUDY    77  65  66 E3        29.91R
MOBRIDGE       PTSUNNY   78  65  63 CALM      29.93R
RAPID CITY     SUNNY     82  60  47 N20G28    30.00R HAZE
$$

  *****  SOME WEATHER IN NEARBY STATES *****

CITY           SKY/WX    TMP DP  RH WIND       PRES   REMARKS
GLASGOW MT     SUNNY     78  60  53 VRB6      29.99F
GREAT FALLS MT PTSUNNY   82  49  31 N12       30.04S
CHEYENNE WY    SUNNY     83  54  36 NE6       30.21S
SCOTTSBLUFF NE SUNNY     93  49  22 VRB3      30.04S HX  90
OMAHA NE       MOSUNNY   83  69  62 E10       29.87S
DES MOINES IA  CLOUDY    74  63  68 NE10      29.92S
DAVENPORT IA   PTSUNNY   70  61  73 NE10      29.94F
CHICAGO IL     PTSUNNY   66  55  67 E8        29.96S
EAU CLAIRE WI  MOSUNNY   70  46  42 NE7       30.01S
LA CROSSE WI   PTSUNNY   69  49  48 NE6       29.99F
$$

  *****  SOME NATIONAL WEATHER *****

CITY           SKY/WX    TMP DP  RH WIND       PRES   REMARKS
LA GUARDIA NY  PTSUNNY   83  62  49 SW12G21   29.76F
RALEIGH NC     PTSUNNY   86  69  56 SW8       29.95F HX  90
ATLANTA GA     PTSUNNY   83  68  60 W8        30.06F
NEW ORLEANS LA TSTM      76  72  87 E9        30.10S FOG
OKLAHOMA CITY  PTSUNNY   92  69  47 SW20      29.90F HX  97
ALBUQUERQUE NM MOSUNNY   88  47  24 S5        30.13F
SALT LAKE CITY PTSUNNY   92  51  24 NW6       30.07F
LOS ANGELES CA CLOUDY    75  63  66 W9        29.93F
BOISE ID       SUNNY     94  51  23 NW13      30.01F HX  91
SEATTLE WA     SUNNY     80  55  42 N10       30.04S
$$

*** WEATHER ACROSS MANITOBA...SASKATCHEWAN AND ONTARIO ***
                ***ONTARIO***

CITY           SKY/WX    TMP DP  RH WIND       PRES   REMARKS
GERALDTON      PTSUNNY   68  45  42 NW8       29.96F
THUNDER BAY    CLOUDY    68  50  52 S9        29.99F
SIOUX LOOKOUT  CLOUDY    61  59  94 S3        29.97S
TORONTO        PTSUNNY   73  57  56 NW20G26   29.80R
BIG TROUT LK   SUNNY     70  46  43 S6        29.91S
PICKLE LAKE    PTSUNNY   68  55  64 SW6       29.91F
DRYDEN         PTSUNNY   68  55  64 VRB2      29.96F
KENORA         PTSUNNY   73  59  60 SW6       29.96F
$$
                *** MANITOBA***

CITY           SKY/WX    TMP DP  RH WIND       PRES   REMARKS
BRANDON        CLOUDY    73  64  73 SW3       29.94S
DAUPHIN        SUNNY     75  59  57 W7        29.91S
ISLAND LAKE    MOSUNNY   75  54  46 S5        29.90S
PILOT MOUND      N/A     73  57  56 S8          N/A
THE PAS        CLOUDY    73  59  60 E6        29.90R SMOKE
THOMPSON       PTSUNNY   75  45  33 VRB7      29.90S
WINNIPEG       PTSUNNY   75  63  64 W7        29.94S
LYNN LAKE        N/A    N/A N/A N/A MISG        N/A
CHURCHILL      MOSUNNY   70  39  32 NE8       29.88F
$$
                ***SASKATCHEWAN***

CITY           SKY/WX    TMP DP  RH WIND       PRES   REMARKS
ESTEVAN        CLOUDY    70  63  78 SW5       29.98S SMOKE
KINDERSLEY     PTSUNNY   72  64  78 SW7       29.98F
LLOYDMINSTER   CLOUDY    68  61  77 NW5       29.99S SMOKE
PRINCE ALBERT    N/A     75  63  64 NW14G20   29.91S SMOKE
REGINA         CLOUDY    68  59  73 W6        29.98F SMOKE
YORKTON        CLOUDY    73  59  60 SW8       29.93F HAZE



USA.gov is the U.S. government's official web portal to all federal, state and local government web resources and services.